Theta_e
322 323 323 322 322 322 323 322 323 323 323 323 324 325 325 326 326 325 319 335 341 364 365 354 355 350 349 344 342 336 325 320 318 320 324 332 328 336 337 333 335 338 340 340 341
322 322 322 322 322 322 322 322 322 322 322 322 323 325 325 326 323 319 342 362 361 364 355 347 343 344 341 341 333 324 322 322 328 327 327 331 331 332 333 331 333 337 342 343 338
322 322 321 321 321 321 321 322 322 322 322 322 323 324 325 327 323 326 353 366 363 363 357 343 337 331 326 335 332 329 323 328 330 333 332 331 331 337 332 328 334 333 337 339 333
321 321 320 320 320 320 321 321 321 321 321 322 323 324 326 327 317 337 346 365 365 353 356 335 327 324 323 324 327 326 329 331 332 334 331 329 332 330 335 334 339 339 340 339 333
320 320 320 320 320 320 320 320 321 321 321 322 324 325 325 321 323 338 363 361 353 353 350 333 327 323 323 325 326 326 330 331 332 333 333 333 330 330 331 335 341 340 340 338 333
320 319 319 319 319 319 320 320 320 320 321 322 324 325 321 317 343 338 345 350 348 351 347 342 334 330 327 324 323 328 328 330 333 332 334 331 332 335 332 338 338 338 336 337 334
320 319 319 319 319 319 319 319 319 320 321 323 325 327 324 320 348 346 344 346 350 345 338 340 339 334 331 326 330 328 324 327 330 332 331 335 329 329 335 337 336 335 335 337 337
320 318 318 318 319 319 318 318 318 320 321 324 327 326 321 328 336 348 347 346 348 344 341 341 341 335 331 334 325 324 322 316 325 330 334 333 324 332 335 335 333 334 335 335 337
319 318 318 318 318 318 318 318 320 322 324 327 324 324 318 334 328 343 348 342 342 341 341 340 337 331 330 320 317 320 311 315 320 330 330 328 326 333 335 333 333 334 335 334 335
319 318 317 317 318 317 317 318 324 322 325 328 328 318 321 318 325 338 344 342 336 336 334 332 331 325 319 317 309 309 310 313 317 323 327 326 328 332 335 333 333 334 334 334 335
318 318 317 316 316 316 318 324 323 322 321 318 314 319 318 322 338 337 338 335 334 331 323 327 321 313 316 319 315 314 312 311 315 319 323 325 327 330 334 333 332 334 334 335 337
317 317 316 315 315 315 318 325 327 326 319 321 319 321 321 328 324 331 336 327 326 320 323 320 315 318 320 317 315 314 311 312 318 317 319 322 325 330 332 333 333 334 335 336 338
316 316 315 314 314 315 321 323 333 330 319 316 319 318 320 324 320 323 330 327 321 318 317 314 316 321 319 315 313 312 310 310 310 319 320 323 322 326 331 334 335 335 337 337 337
316 316 315 313 309 323 323 332 331 330 313 312 315 319 320 321 315 324 330 324 320 315 315 315 319 317 314 312 313 308 313 312 311 310 306 321 312 316 327 329 332 333 334 335 336
315 315 313 311 319 326 328 330 330 327 301 314 316 324 321 317 318 318 328 323 316 315 315 313 315 313 311 312 314 310 314 312 312 311 311 315 314 318 325 324 328 332 334 335 337
314 313 312 315 319 324 329 330 328 311 302 310 315 313 314 316 316 318 319 322 321 315 317 317 322 316 314 315 315 315 312 313 314 311 305 312 311 312 315 323 328 332 334 335 337
312 311 312 325 325 332 330 326 312 306 314 309 309 313 313 312 313 314 314 314 312 310 310 315 314 317 316 312 316 314 310 304 303 303 303 314 310 313 316 318 329 330 333 336 337
309 308 316 325 331 332 327 318 307 315 312 315 313 312 310 313 313 314 314 312 317 316 312 308 306 313 317 315 312 313 311 305 300 301 304 314 308 315 322 320 330 333 334 336 337
308 329 327 329 327 330 321 311 311 316 316 313 313 309 311 312 313 313 313 313 316 316 310 309 309 317 317 317 316 313 310 315 308 309 306 311 316 319 322 321 326 328 332 332 334
319 329 328 332 332 328 317 307 317 322 318 317 310 312 308 310 310 311 312 315 314 316 318 313 309 316 317 318 317 314 317 307 309 302 301 307 308 305 314 321 326 327 328 331 333
324 326 330 334 332 323 312 314 317 321 319 316 314 313 314 312 311 311 311 315 316 316 317 315 312 311 317 314 313 314 312 312 312 309 303 303 308 317 316 319 321 326 329 331 332
325 320 333 333 318 318 314 317 317 321 321 318 318 316 315 315 313 312 312 315 319 317 312 316 313 308 311 318 318 315 311 311 307 306 308 308 309 318 322 322 325 327 329 332 335
322 323 335 331 313 313 318 317 320 319 318 317 316 317 317 315 313 315 315 320 320 318 316 318 313 306 309 313 318 312 314 314 312 311 308 306 306 318 321 322 325 326 333 339 340
323 317 321 326 322 316 315 316 317 321 319 320 319 319 317 315 317 315 316 319 320 319 329 320 313 309 305 308 314 311 312 312 311 306 307 311 311 314 316 319 324 326 336 338 340
327 319 324 318 318 318 317 318 316 316 320 321 318 317 316 312 314 313 316 317 319 321 319 316 309 311 312 313 312 311 311 311 310 311 307 311 312 315 318 322 323 335 337 337 339
319 319 322 320 320 318 315 316 315 317 318 318 317 318 318 315 316 315 316 317 316 319 317 317 310 312 310 313 312 309 311 311 311 311 311 312 311 320 329 332 333 336 336 337 337
316 321 321 316 318 315 315 315 316 319 320 322 321 320 319 321 324 324 324 323 321 317 316 315 312 310 307 312 312 307 312 312 313 313 312 308 314 321 325 327 330 330 337 337 340
Wind_Speed
15 13 12 12 11 10 10 10 10 9 9 9 10 12 11 11 13 7 10 3 6 17 9 14 15 4 7 9 4 11 4 7 4 3 13 15 7 13 10 12 8 8 17 29 24
16 14 12 12 11 10 10 10 10 9 9 8 9 11 10 10 9 17 6 12 19 15 10 9 1 5 12 16 9 5 2 3 12 1 8 16 3 10 8 6 18 19 27 28 27
16 15 13 11 11 10 10 10 10 9 8 8 10 10 10 11 10 5 8 10 15 17 16 31 23 14 11 7 12 16 3 12 13 9 7 16 6 18 19 11 12 22 26 26 25
16 15 13 12 10 10 9 10 10 9 8 9 10 10 9 7 3 4 5 8 14 18 17 26 26 15 7 15 20 5 7 8 12 4 2 4 10 14 9 10 20 22 25 26 23
16 15 13 11 11 9 9 10 10 9 9 9 11 9 8 10 5 8 7 8 13 15 18 33 24 13 13 12 17 16 10 8 6 5 9 3 15 11 10 6 24 18 27 23 20
16 15 13 12 11 10 10 10 10 9 9 10 10 8 8 11 11 12 12 14 14 15 16 21 25 28 14 21 12 5 3 8 10 6 5 12 7 7 10 12 23 20 22 21 20
17 16 14 12 11 11 10 11 10 10 10 10 8 7 11 8 13 13 13 14 17 16 16 16 9 11 17 9 1 4 10 14 10 6 7 11 9 12 12 12 19 18 15 20 13
18 17 15 13 12 11 12 12 12 11 11 10 7 9 9 5 5 14 12 14 17 12 14 16 14 15 13 23 10 14 12 7 8 8 19 12 7 10 11 12 19 16 17 16 21
18 17 16 14 13 13 12 13 13 11 10 6 7 9 8 5 11 12 15 14 9 13 15 14 13 14 8 13 16 12 2 14 10 10 21 12 13 11 9 10 17 17 15 15 17
18 16 16 14 13 12 12 9 3 7 8 10 12 9 11 13 14 13 13 13 7 12 15 18 15 7 4 8 8 5 4 12 12 9 12 12 15 12 12 11 11 13 18 13 15
19 17 15 14 12 11 11 5 7 7 11 11 14 14 11 16 14 11 12 10 14 17 14 15 14 12 24 22 10 7 8 13 11 5 6 12 14 11 12 12 13 13 14 14 14
19 17 14 13 12 10 7 8 10 10 7 18 17 10 1 9 11 15 14 14 14 14 17 15 12 19 20 7 10 9 9 15 11 6 3 9 16 12 9 11 12 14 14 16 17
20 17 14 12 10 5 12 19 18 12 9 12 10 13 8 12 15 17 16 15 18 17 14 19 11 18 15 11 11 13 10 9 2 13 12 15 13 12 9 8 12 14 16 17 18
20 17 12 9 3 9 10 15 20 5 10 10 11 10 11 11 15 14 16 16 13 15 15 13 14 6 9 11 7 11 6 7 10 13 11 19 8 3 13 10 13 15 15 16 15
21 17 11 10 13 9 7 6 9 4 7 15 11 11 11 14 11 8 16 15 18 16 10 16 10 10 8 10 9 12 9 9 12 12 19 26 12 5 4 10 14 16 17 17 17
22 17 10 7 8 18 16 11 7 8 4 12 10 10 14 12 9 10 11 16 12 18 16 12 16 5 9 7 9 11 11 15 17 13 12 21 16 10 9 19 18 18 19 19 20
25 16 7 10 9 4 6 7 9 11 10 13 13 14 16 14 9 11 13 13 14 13 13 17 15 13 2 13 15 13 15 9 6 3 11 18 10 8 20 13 19 22 20 18 21
31 18 14 10 10 12 8 9 12 14 8 10 14 16 15 13 15 14 13 15 18 19 16 14 12 9 11 12 12 9 10 5 3 9 9 14 7 6 11 16 26 23 22 20 18
36 6 6 9 15 10 8 10 16 13 5 11 14 12 9 12 16 14 17 16 17 12 10 8 5 4 4 6 9 13 8 12 14 19 10 11 12 18 10 32 37 25 25 21 17
8 9 13 12 14 8 9 16 17 24 6 7 10 11 13 14 8 14 16 13 8 2 10 11 8 10 12 10 12 13 12 12 7 4 9 9 7 12 25 13 13 14 15 13 10
6 8 11 10 8 8 11 18 12 3 2 9 8 8 12 11 13 11 7 11 6 4 6 13 15 6 13 4 13 3 10 10 11 11 5 4 8 9 9 20 17 6 13 12 12
7 9 11 10 9 9 13 22 9 20 8 10 14 12 14 10 11 7 5 5 8 5 2 11 13 7 10 11 2 10 10 14 10 7 9 6 5 5 16 13 16 21 13 12 11
8 12 9 9 11 12 18 24 20 7 15 7 12 12 15 9 9 8 5 10 6 3 7 10 7 8 10 13 15 8 3 9 14 12 3 6 3 10 4 19 12 21 7 11 11
7 6 8 8 11 18 18 19 16 12 14 15 11 15 15 10 12 6 9 13 9 1 8 6 15 16 12 14 10 8 2 5 10 11 11 12 12 11 14 19 27 19 11 13 11
6 7 16 7 5 13 15 17 15 13 12 9 14 15 17 11 14 13 14 5 6 9 3 7 16 17 18 7 5 7 12 11 11 13 14 10 18 25 27 24 20 22 19 16 14
9 8 10 16 18 13 9 13 16 18 20 10 11 13 19 15 14 13 20 10 10 14 8 13 15 14 15 11 10 13 7 10 12 12 12 12 11 6 30 25 19 19 19 16 14
9 9 8 10 14 12 12 15 10 12 14 6 16 9 17 14 15 14 15 17 15 5 13 9 12 14 12 8 10 10 9 10 11 11 11 11 10 10 13 12 11 6 15 16 16
Wind_Direction
342 337 330 324 321 315 309 308 304 309 308 311 307 305 313 314 291 245 255 242 161 164 223 181 225 217 230 252 47 12 13 5 31 297 115 126 155 120 112 126 135 148 148 147 157
340 338 332 326 321 313 308 301 301 301 302 305 303 301 310 320 266 254 233 132 140 162 199 194 154 295 247 208 105 144 264 84 66 295 79 100 337 112 35 47 86 88 108 139 158
341 338 332 325 320 314 307 298 297 298 297 296 296 298 310 303 272 206 163 150 160 179 220 69 43 34 329 290 148 169 280 62 70 27 8 104 258 93 125 256 140 125 133 145 158
343 338 334 327 321 314 306 300 293 296 297 295 293 301 309 257 275 91 195 161 186 196 239 75 33 9 322 340 352 0 78 61 79 79 110 84 116 126 127 51 127 138 142 148 166
346 342 336 329 321 314 305 294 296 299 294 293 294 308 276 221 251 131 131 168 192 211 231 115 154 201 130 251 173 230 114 131 114 93 74 111 59 63 54 73 122 135 140 152 164
348 342 337 330 322 313 302 297 292 293 289 290 290 307 248 252 106 134 159 161 182 209 227 194 182 197 220 228 228 98 91 122 143 118 87 97 102 127 77 74 138 137 145 156 166
348 343 335 330 322 316 306 298 292 286 280 281 283 272 258 282 129 152 174 182 216 222 248 273 287 294 281 271 319 176 164 140 144 161 117 93 105 88 103 124 110 122 139 146 154
345 344 335 329 323 318 308 298 288 278 275 272 274 253 276 158 223 157 188 208 234 248 274 279 291 305 287 324 314 294 157 155 125 154 107 355 114 119 127 132 124 134 145 147 167
344 343 335 326 323 316 306 295 275 265 251 261 234 230 230 113 218 201 193 220 226 244 255 271 288 290 352 311 306 246 99 120 137 204 141 148 129 137 126 128 132 147 156 160 177
342 338 335 324 321 315 309 290 289 235 218 214 259 233 214 203 195 205 201 239 242 249 259 253 250 240 301 176 267 348 87 91 125 149 207 113 116 140 134 132 143 145 154 173 181
338 335 331 324 318 318 310 199 207 195 218 229 185 235 140 204 142 199 207 220 245 260 271 288 250 75 272 271 311 301 285 115 120 161 207 133 132 146 147 143 151 162 172 173 178
335 332 330 322 313 316 282 248 314 325 225 227 211 256 100 133 185 204 201 226 239 255 268 260 258 156 234 292 276 281 277 118 127 156 201 136 132 142 166 158 168 169 178 180 173
332 329 328 320 311 251 234 253 306 315 279 172 207 216 198 196 210 193 190 224 253 256 255 270 46 300 294 280 293 280 355 37 353 166 195 112 115 143 167 191 171 178 184 187 177
329 327 321 318 264 219 217 238 238 303 278 147 189 198 172 208 225 204 182 229 221 260 269 272 286 215 283 278 309 301 42 306 254 239 227 169 147 260 159 209 188 185 187 179 173
326 323 310 249 323 273 6 344 338 247 261 155 158 128 172 221 107 169 165 213 256 241 248 260 230 239 280 313 348 294 320 268 259 262 264 194 115 337 158 209 216 208 185 179 181
323 320 314 199 221 249 296 301 249 239 238 154 141 184 200 222 215 131 178 223 236 258 243 255 271 305 289 324 254 258 280 259 252 234 242 79 93 226 230 201 207 211 188 185 176
320 312 254 309 234 344 271 268 237 246 146 142 165 166 201 194 161 158 187 205 228 222 221 216 228 221 209 250 241 224 236 260 254 345 311 136 130 182 222 218 215 194 190 183 175
317 311 208 247 304 290 277 255 255 270 211 161 161 186 202 160 151 185 182 201 225 246 253 236 194 182 186 256 326 303 311 198 238 295 232 81 142 171 135 297 232 196 180 174 180
310 186 237 228 222 260 260 251 275 303 106 154 181 196 197 185 163 189 209 221 213 224 274 41 183 207 223 294 292 305 297 335 290 221 217 109 92 -0 340 215 244 179 168 155 177
311 273 240 185 182 221 244 257 246 267 10 309 194 213 188 185 194 194 199 223 260 276 306 286 200 248 169 209 227 261 314 300 298 342 334 102 78 145 256 310 125 144 105 107 134
251 249 132 156 185 228 245 255 275 252 240 284 294 227 244 280 181 236 231 176 204 179 240 303 295 184 254 352 332 268 274 303 337 301 217 184 93 161 104 265 328 18 125 127 120
296 270 142 175 215 234 251 250 208 278 168 265 293 294 313 329 207 231 321 25 129 206 253 246 298 305 226 210 314 285 272 285 279 328 323 346 122 244 235 59 76 283 261 138 117
292 300 163 207 239 240 250 252 269 281 261 251 250 276 273 283 273 331 308 83 110 276 4 320 278 271 341 7 345 285 318 332 301 304 283 7 292 299 52 107 224 241 178 115 117
276 273 215 190 245 268 272 275 277 196 268 298 314 308 306 264 280 268 295 162 157 229 26 313 283 297 286 168 200 306 271 313 315 301 11 83 116 215 199 174 212 236 181 138 135
245 296 13 289 228 251 256 279 301 291 189 241 259 266 279 276 271 252 238 146 165 138 241 254 265 278 283 339 356 302 310 320 311 316 320 139 157 186 200 204 253 182 149 155 148
347 349 340 303 294 296 288 283 286 290 289 298 221 259 270 273 291 347 325 258 208 153 199 248 260 275 295 301 300 288 276 286 289 295 295 302 318 49 156 187 146 151 147 145 161
10 335 288 291 297 288 266 277 296 299 286 327 307 334 306 2 345 328 311 306 314 257 205 206 251 256 264 278 312 296 245 250 268 258 270 283 296 87 123 144 152 159 150 152 130